When you browse on this site, cookies collect data to enhance your experience and personalize the content and advertising you see.
Visit our Privacy Policy to learn more. By continuing to use the site, you agree to this use of cookies and data.
  • In Italy
  • List of Countries
  • For 7 days
  • Water Temperature
  • Satellite Maps
  • Weather Map
  • Weather Widgets
  • user-avatar
    Login

    Hourly Weather Minsk

    Today, 17 June, Monday

    Time Temperature Precipitation Wind Pressure Humidity
    00:00 +19°C° 0 mm 1 mps 742 mmHg 93%
    01:00 +19°C° 0 mm 1 mps 742 mmHg 93%
    02:00 +19°C° 0 mm 1 mps 742 mmHg 87%
    03:00 +19°C° 0 mm 1 mps 742 mmHg 88%
    04:00 +19°C° 0 mm 1 mps 742 mmHg 90%
    05:00 +19°C° 0 mm 1 mps 742 mmHg 91%
    06:00 +20°C° 0 mm 1 mps 742 mmHg 89%
    07:00 +20°C° 0 mm 2 mps 742 mmHg 87%
    08:00 +21°C° 0 mm 2 mps 743 mmHg 84%
    09:00 +21°C° 0 mm 3 mps 742 mmHg 85%
    10:00 +21°C° 0 mm 4 mps 742 mmHg 87%
    11:00 +20°C° 0 mm 4 mps 742 mmHg 88%
    12:00 +21°C° 0 mm 5 mps 742 mmHg 84%
    13:00 +21°C° 0 mm 5 mps 743 mmHg 80%
    14:00 +21°C° 0 mm 5 mps 743 mmHg 77%
    15:00 +21°C° 0 mm 5 mps 743 mmHg 77%
    16:00 +21°C° 0 mm 5 mps 743 mmHg 77%
    17:00 +20°C° 0 mm 5 mps 742 mmHg 77%
    18:00 +20°C° 0 mm 4 mps 743 mmHg 81%
    19:00 +19°C° 0 mm 3 mps 743 mmHg 84%
    20:00 +18°C° 0 mm 3 mps 743 mmHg 88%
    21:00 +18°C° 0 mm 3 mps 743 mmHg 91%
    22:00 +17°C° 0 mm 3 mps 743 mmHg 93%
    23:00 +16°C° 0 mm 3 mps 744 mmHg 96%

    Tomorrow, 18 June, Tuesday

    Time Temperature Precipitation Wind Pressure Humidity
    00:00 +16°C° 0 mm 3 mps 744 mmHg 95%
    01:00 +14°C° 0 mm 4 mps 744 mmHg 95%
    02:00 +14°C° 0 mm 4 mps 744 mmHg 95%
    03:00 +14°C° 0 mm 4 mps 744 mmHg 93%
    04:00 +14°C° 0 mm 4 mps 744 mmHg 92%
    05:00 +15°C° 0 mm 4 mps 744 mmHg 90%
    06:00 +15°C° 0 mm 4 mps 745 mmHg 84%
    07:00 +17°C° 0 mm 4 mps 745 mmHg 77%
    08:00 +18°C° 0 mm 4 mps 745 mmHg 71%
    09:00 +19°C° 0 mm 4 mps 745 mmHg 68%
    10:00 +21°C° 0 mm 4 mps 746 mmHg 65%
    11:00 +22°C° 0 mm 4 mps 746 mmHg 62%
    12:00 +22°C° 0 mm 4 mps 745 mmHg 59%
    13:00 +23°C° 0 mm 4 mps 745 mmHg 56%
    14:00 +23°C° 0 mm 4 mps 745 mmHg 54%
    15:00 +23°C° 0 mm 4 mps 745 mmHg 56%
    16:00 +23°C° 0 mm 4 mps 745 mmHg 58%
    17:00 +24°C° 0 mm 3 mps 745 mmHg 60%
    18:00 +22°C° 0 mm 3 mps 745 mmHg 64%
    19:00 +20°C° 0 mm 2 mps 745 mmHg 68%
    20:00 +19°C° 0 mm 2 mps 745 mmHg 73%
    21:00 +18°C° 0 mm 2 mps 745 mmHg 74%
    22:00 +17°C° 0 mm 2 mps 745 mmHg 75%
    23:00 +16°C° 0 mm 1 mps 745 mmHg 76%

    Day after tomorrow, 19 June, Wednesday

    Time Temperature Precipitation Wind Pressure Humidity
    00:00 +16°C° 0 mm 1 mps 745 mmHg 78%
    01:00 +15°C° 0 mm 1 mps 745 mmHg 81%
    02:00 +15°C° 0 mm 1 mps 745 mmHg 84%
    03:00 +15°C° 0 mm 1 mps 745 mmHg 84%
    04:00 +15°C° 0 mm 1 mps 745 mmHg 85%
    05:00 +15°C° 0 mm 1 mps 745 mmHg 86%
    06:00 +18°C° 0 mm 1 mps 745 mmHg 81%
    07:00 +20°C° 0 mm 1 mps 745 mmHg 76%
    08:00 +20°C° 0 mm 2 mps 745 mmHg 71%
    09:00 +21°C° 0 mm 2 mps 746 mmHg 65%
    10:00 +23°C° 0 mm 2 mps 746 mmHg 60%
    11:00 +24°C° 0 mm 2 mps 746 mmHg 55%
    12:00 +25°C° 0 mm 2 mps 745 mmHg 53%
    13:00 +25°C° 0 mm 2 mps 745 mmHg 52%
    14:00 +26°C° 0 mm 2 mps 745 mmHg 50%
    15:00 +26°C° 0 mm 2 mps 744 mmHg 53%
    16:00 +25°C° 0 mm 2 mps 744 mmHg 56%
    17:00 +25°C° 0 mm 2 mps 744 mmHg 58%
    18:00 +24°C° 0 mm 2 mps 744 mmHg 63%
    19:00 +21°C° 0 mm 2 mps 743 mmHg 68%
    20:00 +20°C° 0 mm 2 mps 743 mmHg 72%
    21:00 +19°C° 0 mm 2 mps 743 mmHg 73%
    22:00 +18°C° 0 mm 2 mps 744 mmHg 74%
    23:00 +17°C° 0 mm 2 mps 744 mmHg 75%

    20 June, Thursday

    Time Temperature Precipitation Wind Pressure Humidity
    00:00 +17°C° 0 mm 2 mps 744 mmHg 76%
    01:00 +16°C° 0 mm 3 mps 743 mmHg 77%
    02:00 +16°C° 0 mm 3 mps 743 mmHg 77%
    03:00 +16°C° 0 mm 3 mps 743 mmHg 80%
    04:00 +16°C° 0 mm 3 mps 743 mmHg 82%
    05:00 +16°C° 0 mm 3 mps 743 mmHg 84%
    06:00 +18°C° 0 mm 3 mps 743 mmHg 82%
    07:00 +20°C° 0 mm 4 mps 743 mmHg 80%
    08:00 +21°C° 0 mm 4 mps 743 mmHg 78%
    09:00 +23°C° 0.2 mm 5 mps 743 mmHg 75%
    10:00 +25°C° 0.2 mm 5 mps 743 mmHg 71%
    11:00 +26°C° 0.2 mm 5 mps 743 mmHg 68%
    12:00 +27°C° 0 mm 5 mps 743 mmHg 65%
    13:00 +27°C° 0 mm 5 mps 742 mmHg 63%
    14:00 +28°C° 0 mm 5 mps 742 mmHg 61%
    15:00 +27°C° 0.5 mm 5 mps 742 mmHg 66%
    16:00 +27°C° 0.5 mm 4 mps 742 mmHg 71%
    17:00 +26°C° 0.5 mm 3 mps 742 mmHg 76%
    18:00 +25°C° 1.3 mm 3 mps 742 mmHg 79%
    19:00 +24°C° 1.3 mm 3 mps 742 mmHg 82%
    20:00 +23°C° 1.3 mm 2 mps 741 mmHg 85%
    21:00 +21°C° 0.6 mm 2 mps 741 mmHg 87%
    22:00 +21°C° 0.6 mm 3 mps 742 mmHg 88%
    23:00 +20°C° 0.6 mm 3 mps 742 mmHg 89%

    21 June, Friday

    Time Temperature Precipitation Wind Pressure Humidity
    00:00 +20°C° 0.9 mm 3 mps 742 mmHg 91%
    01:00 +20°C° 0.9 mm 3 mps 742 mmHg 93%
    02:00 +19°C° 0.9 mm 3 mps 742 mmHg 95%
    03:00 +19°C° 0.4 mm 3 mps 742 mmHg 95%
    04:00 +20°C° 0.4 mm 4 mps 742 mmHg 95%
    05:00 +20°C° 0.4 mm 4 mps 742 mmHg 96%
    06:00 +20°C° 0.1 mm 4 mps 742 mmHg 94%
    07:00 +21°C° 0.1 mm 4 mps 742 mmHg 93%
    08:00 +22°C° 0.1 mm 4 mps 742 mmHg 92%
    09:00 +22°C° 0 mm 4 mps 742 mmHg 90%
    10:00 +23°C° 0 mm 4 mps 742 mmHg 88%
    11:00 +25°C° 0 mm 3 mps 742 mmHg 86%
    12:00 +25°C° 1.2 mm 4 mps 742 mmHg 83%
    13:00 +26°C° 1.2 mm 4 mps 742 mmHg 80%
    14:00 +26°C° 1.2 mm 4 mps 742 mmHg 78%
    15:00 +26°C° 0.8 mm 3 mps 742 mmHg 78%
    16:00 +26°C° 0.8 mm 3 mps 742 mmHg 79%
    17:00 +26°C° 0.8 mm 2 mps 742 mmHg 79%
    18:00 +26°C° 0.2 mm 2 mps 742 mmHg 81%
    19:00 +25°C° 0.2 mm 2 mps 742 mmHg 84%
    20:00 +24°C° 0.2 mm 2 mps 742 mmHg 86%
    21:00 +23°C° 0 mm 2 mps 742 mmHg 88%
    22:00 +23°C° 0 mm 2 mps 742 mmHg 89%
    23:00 +21°C° 0 mm 2 mps 742 mmHg 91%

    22 June, Saturday

    Time Temperature Precipitation Wind Pressure Humidity
    00:00 +21°C° 0 mm 2 mps 742 mmHg 92%
    01:00 +20°C° 0 mm 2 mps 742 mmHg 93%
    02:00 +20°C° 0 mm 2 mps 742 mmHg 94%
    03:00 +20°C° 0 mm 2 mps 742 mmHg 94%
    04:00 +20°C° 0 mm 2 mps 742 mmHg 95%
    05:00 +20°C° 0 mm 2 mps 742 mmHg 95%
    06:00 +21°C° 0.1 mm 2 mps 742 mmHg 94%
    07:00 +22°C° 0.1 mm 3 mps 742 mmHg 92%
    08:00 +24°C° 0.1 mm 3 mps 742 mmHg 91%
    09:00 +25°C° 0.3 mm 4 mps 742 mmHg 87%
    10:00 +26°C° 0.3 mm 4 mps 742 mmHg 83%
    11:00 +27°C° 0.3 mm 4 mps 742 mmHg 79%
    12:00 +28°C° 0.9 mm 5 mps 742 mmHg 76%
    13:00 +28°C° 0.9 mm 5 mps 742 mmHg 73%
    14:00 +29°C° 0.9 mm 6 mps 742 mmHg 70%
    15:00 +28°C° 0.3 mm 5 mps 742 mmHg 71%
    16:00 +28°C° 0.3 mm 4 mps 741 mmHg 72%
    17:00 +28°C° 0.3 mm 4 mps 741 mmHg 72%
    18:00 +27°C° 0 mm 3 mps 741 mmHg 74%
    19:00 +26°C° 0 mm 3 mps 741 mmHg 76%
    20:00 +25°C° 0 mm 2 mps 741 mmHg 79%
    21:00 +24°C° 0 mm 2 mps 741 mmHg 81%
    22:00 +21°C° 0 mm 3 mps 741 mmHg 83%
    23:00 +20°C° 0 mm 3 mps 741 mmHg 85%
    Show more